This is the latest recevied weather packets stored in our database for station/object K7FRY. If no packets are shown the sender has not sent any weather packets the latest 10 day(s).
| Time | Temp. | Humidity | Pressure | Rain* | Wind** | Luminosity | Snow |
|---|---|---|---|---|---|---|---|
| 1777692855 | 22.78° C | 28% | 1013.6 hPa | 0 mm | - | 0 W/m² | - |
| 1777692551 | 22.78° C | 28% | 1013.2 hPa | 0 mm | - | 0 W/m² | - |
| 1777692248 | 22.78° C | 28% | 1013.2 hPa | 0 mm | - | 0 W/m² | - |
| 1777691945 | 22.78° C | 28% | 1013.1 hPa | 0 mm | - | 0 W/m² | - |
| 1777691643 | 22.78° C | 29% | 1012.9 hPa | 0 mm | - | 0 W/m² | - |
| 1777691341 | 22.78° C | 28% | 1013.2 hPa | 0 mm | - | 0 W/m² | - |
| 1777691039 | 23.33° C | 28% | 1012.9 hPa | 0 mm | - | 0 W/m² | - |
| 1777690736 | 22.78° C | 28% | 1012.8 hPa | 0 mm | - | 0 W/m² | - |
| 1777690433 | 22.78° C | 28% | 1012.5 hPa | 0 mm | - | 0 W/m² | - |
| 1777690131 | 23.89° C | 28% | 1012.6 hPa | 0 mm | - | 0 W/m² | - |
| 1777689829 | 24.44° C | 27% | 1012.6 hPa | 0 mm | - | 0 W/m² | - |
| 1777689527 | 24.44° C | 27% | 1012.6 hPa | 0 mm | - | 0 W/m² | - |
| 1777689224 | 25° C | 27% | 1012.3 hPa | 0 mm | - | 0 W/m² | - |
| 1777688922 | 25° C | 26% | 1012.2 hPa | 0 mm | - | 0 W/m² | - |
| 1777688618 | 25° C | 25% | 1012.3 hPa | 0 mm | - | 0 W/m² | - |
| 1777688315 | 25.56° C | 25% | 1011.9 hPa | 0 mm | - | 0 W/m² | - |
| 1777688012 | 25.56° C | 25% | 1012 hPa | 0 mm | - | 0 W/m² | - |
| 1777687710 | 25.56° C | 25% | 1012.1 hPa | 0 mm | - | 0 W/m² | - |
| 1777687407 | 26.11° C | 24% | 1012 hPa | 0 mm | - | 3 W/m² | - |
| 1777687104 | 26.11° C | 25% | 1011.6 hPa | 0 mm | - | 6 W/m² | - |
| 1777686801 | 26.11° C | 25% | 1011.9 hPa | 0 mm | - | 9 W/m² | - |
| 1777686498 | 26.11° C | 25% | 1011.6 hPa | 0 mm | - | 12 W/m² | - |
| 1777686195 | 26.67° C | 25% | 1011.4 hPa | 0 mm | - | 15 W/m² | - |
| 1777685891 | 26.67° C | 25% | 1011.9 hPa | 0 mm | - | 19 W/m² | - |
| 1777685587 | 26.67° C | 24% | 1011.6 hPa | 0 mm | - | 23 W/m² | - |
* Rain latest hour (hover to see other rain measurements)
** Current wind speed in m/s (hover to see current wind gust speed)